Other Public Products
Issued by NWS Charleston, SC

Current Version | Previous Version | Graphics & Text | Print | Product List | Glossary On
Versions: 1 2 3 4 5 6 7 8 9 10 11 12 13 14 15 16 17 18 19 20 21 22 23 24 25 26 27 28 29 30 31 32 33 34 35 36 37 38 39 40 41 42 43 44 45 46 47 48 49 50
000
FPUS82 KCHS 201412
OPUCHS

TEST...KCHS/KSAV Gateway Observations...TEST
National Weather Service Charleston SC
1000 AM EDT FRI APR 20 2018

NOTE: "fair" indicates few or no clouds below 12,000 feet with no
significant weather and/or obstructions to visibility.

SCZ050-WAZ558-NCZ071-TXZ119-213-PAZ071-DCZ001-FLZ074-172-MI076-
NYZ176-178-MAZ016-IL014-TNZ027-NJZ106-GAZ044-MD014-201500-

...Gateway Observations for Charleston International...

CITY           SKY/WX    TMP DP  RH WIND       PRES   REMARKS
Chas Airport   FAIR      56  31  38 NE15      30.33R
Seattle        MOCLDY    44  38  79 SE8       30.26R
Charlotte      FAIR      53  29  39 NE13G21   30.38R
Dallas DFW     CLOUDY    53  35  50 SE21G28   30.29R
Dallas Love    CLOUDY    52  34  50 E20G30    30.30R
Philladelphia  FAIR      43  21  41 NW15G24   30.24R
Wash National  FAIR      47  22  37 NW10G24   30.31R
Baltimore      FAIR      45  22  40 NW16G28   30.28R
Miami          FAIR      76  67  73 NW8       30.11R
Detroit        FAIR      44  22  41 W3        30.47R
Newark         FAIR      44  22  41 NW20G31   30.17R
Laguardia      FAIR      42  24  49 NW18G26   30.15R
J F K          FAIR      43  24  47 NW24G30   30.16R
Boston Logan   PTSUNNY   43  26  51 NW16G24   29.99R
Ft. Lauderdale FAIR      77  68  73 NW6       30.10R
Chicago O`Hare FAIR      46  25  43 N5        30.50R
Chicago Midway FAIR      48  26  42 CALM      30.51R
Houston Bush   PTSUNNY   55  42  61 E15       30.26F
Houston Hobby  PTSUNNY   56  41  57 E16       30.26S
Nashville      FAIR      49  33  54 E7        30.42R
Atlanta        FAIR      51  31  46 E17       30.35R

$$

GAZ044-118-TXZ119-213-NCZ071-DCZ001-MDZ014-506-PAZ021-071-NJZ106-
NYZ176-178-MAZ106-OHZ011-021-055-MIZ076-KYZ091-ILZ014-INZ047-
MNZ060-ONZ431-201500-

...Gateway Observations for Savannah International...

CITY           SKY/WX    TMP DP  RH WIND       PRES   REMARKS
Savannah Arpt  PTSUNNY   56  33  42 NE13G23   30.31R
Atlanta        FAIR      51  31  46 E17       30.35R
Charlotte      FAIR      53  29  39 NE13G21   30.38R
Dallas DFW     CLOUDY    53  35  50 SE21G28   30.29R
Houston Bush   PTSUNNY   55  42  61 E15       30.26F
Wash National  FAIR      47  22  37 NW10G24   30.31R
Wash Dulles    FAIR      45  22  40 NW20G26   30.31R
Baltimore      FAIR      45  22  40 NW16G28   30.28R
Philadelphia   FAIR      43  21  41 NW15G24   30.24R
Newark         FAIR      44  22  41 NW20G31   30.17R
Laguardia      FAIR      42  24  49 NW18G26   30.15R
J F K          FAIR      43  24  47 NW24G30   30.16R
Boston         PTSUNNY   43  26  51 NW16G24   29.99R
Pittsburg      FAIR      39  25  57 NW10      30.38R WCI  32
Akron          FAIR      41  26  55 N9        30.42R
Cleveland      FAIR      42  26  53 N10       30.48R
Cincinnati     FAIR      45  29  53 E6        30.47R
Columbus       FAIR      42  25  50 NW5       30.47S
Detroit        FAIR      44  22  41 W3        30.47R
Chicago O`Hare FAIR      46  25  43 N5        30.50R
Minneapolis    PTSUNNY   36  28  73 CALM      30.51S
Indianapolis   FAIR      45  19  35 E10       30.50R
Toronto Canada MOSUNNY   36  21  55 NW15      30.37R WCI  26

$$




USA.gov is the U.S. government's official web portal to all federal, state and local government web resources and services.